This is the latest recevied weather packets stored in our database for station/object WD4DAN-13. If no packets are shown the sender has not sent any weather packets the latest 10 day(s).
| Time | Temp. | Humidity | Pressure | Rain* | Wind** | Luminosity | Snow |
|---|---|---|---|---|---|---|---|
| 1777911370 | 23.89° C | 44% | - | 0 mm | - | - | - |
| 1777911068 | 22.78° C | 45% | - | 0 mm | - | - | - |
| 1777910765 | 23.89° C | 45% | - | 0 mm | - | - | - |
| 1777910461 | 23.33° C | 44% | - | 0 mm | - | - | - |
| 1777910157 | 23.89° C | 47% | - | 0 mm | - | - | - |
| 1777909855 | 22.78° C | 46% | - | 0 mm | - | - | - |
| 1777909552 | 22.78° C | 46% | - | 0 mm | - | - | - |
| 1777909249 | 23.89° C | 45% | - | 0 mm | - | - | - |
| 1777908947 | 23.33° C | 49% | - | 0 mm | - | - | - |
| 1777908646 | 23.33° C | 48% | - | 0 mm | - | - | - |
| 1777908342 | 22.78° C | 45% | - | 0 mm | - | - | - |
| 1777908038 | 22.78° C | 46% | - | 0 mm | - | - | - |
| 1777907733 | 22.78° C | 46% | - | 0 mm | - | - | - |
| 1777907428 | 22.78° C | 49% | - | 0 mm | - | - | - |
| 1777907125 | 22.22° C | 47% | - | 0 mm | - | - | - |
| 1777906823 | 22.78° C | 43% | - | 0 mm | - | - | - |
| 1777906520 | 22.78° C | 49% | - | 0 mm | - | - | - |
| 1777906215 | 22.78° C | 50% | - | 0 mm | - | - | - |
| 1777905912 | 22.78° C | 54% | - | 0 mm | - | - | - |
| 1777905609 | 22.78° C | 58% | - | 0 mm | - | - | - |
| 1777905306 | 21.67° C | 62% | - | 0 mm | - | - | - |
| 1777905004 | 21.67° C | 62% | - | 0 mm | - | - | - |
| 1777904701 | 21.67° C | 64% | - | 0 mm | - | - | - |
| 1777904397 | 21.67° C | 64% | - | 0 mm | - | - | - |
| 1777904094 | 21.67° C | 63% | - | 0 mm | - | - | - |
* Rain latest hour (hover to see other rain measurements)
** Current wind speed in m/s (hover to see current wind gust speed)